Weather History for Palmer, AK

Change the Weather History Date:

Tuesday, September 4, 2012

  Actual Average Record
Temperature  
Mean Temperature 50 °F -  
Max Temperature 57 °F 60 °F 69 °F (1978)
Min Temperature 46 °F 42 °F 26 °F (1980)
Degree Days  
Heating Degree Days 14    
Moisture  
Dew Point 40 °F    
Average Humidity 65    
Maximum Humidity 93    
Minimum Humidity 44    
Precipitation  
Precipitation 0.00 in - - ()
Sea Level Pressure  
Sea Level Pressure 29.83 in    
Wind  
Wind Speed 9 mph (East)    
Max Wind Speed 33 mph    
Max Gust Speed 44 mph    
Visibility 9 miles    
Events Rain    
Averages and records for this station are not official NWS values.
T = Trace of Precipitation, MM = Missing Value Source: NWS Daily Summary

Daily Weather History Graph

Daily Weather History Graph

Search for Another Location

Airport:

Trip Planner

Search our weather history database for the weather conditions in past years. The results will help you decide how hot, cold, wet, or windy it might be!

Date:

Astronomy

Sep. 04, 2012 Rise Set
Actual Time 6:56 AM AKDT 8:52 PM AKDT
Civil Twilight 6:09 AM AKDT 9:38 PM AKDT
Nautical Twilight 5:08 AM AKDT 10:38 PM AKDT
Astronomical Twilight 3:49 AM AKDT 11:56 PM AKDT
Moon 9:10 PM AKDT (9/4) 12:49 PM AKDT (9/4)
Length of Visible Light 15h 29m
Length of Day
13h 55m
Waning Gibbous, 82% of the Moon is Illuminated
Sep 4
Waning Gibbous
Sep 8
Last Quarter
Sep 15
New
Sep 22
First Quarter
Sep 29
Full

Hourly Weather History & Observations

Time (AKDT) Temp. Dew Point Humidity Pressure Visibility Wind Dir Wind Speed Gust Speed Precip Events Conditions
12:53 AM 50.0 °F 46.0 °F 86% 29.80 in 9.0 mi North 4.6 mph - N/A   Overcast
1:53 AM 48.9 °F 46.0 °F 90% 29.84 in 10.0 mi Calm Calm - N/A   Overcast
2:53 AM 48.9 °F 46.0 °F 90% 29.86 in 10.0 mi NE 3.5 mph - 0.00 in Rain Light Rain
3:53 AM 48.0 °F 46.0 °F 93% 29.88 in 8.0 mi Calm Calm - 0.00 in   Overcast
4:53 AM 46.9 °F 45.0 °F 93% 29.90 in 10.0 mi Calm Calm - N/A   Overcast
5:53 AM 48.0 °F 43.0 °F 83% 29.91 in 10.0 mi Variable 4.6 mph - N/A   Overcast
6:53 AM 46.9 °F 44.1 °F 90% 29.91 in 9.0 mi North 4.6 mph - N/A   Overcast
7:53 AM 46.9 °F 44.1 °F 90% 29.91 in 9.0 mi North 8.1 mph - N/A   Mostly Cloudy
8:53 AM 48.9 °F 42.1 °F 77% 29.91 in 10.0 mi NNE 6.9 mph - N/A   Overcast
9:53 AM 51.1 °F 45.0 °F 80% 29.91 in 10.0 mi North 8.1 mph - N/A   Overcast
10:53 AM 54.0 °F 43.0 °F 66% 29.90 in 10.0 mi NNE 8.1 mph - N/A   Overcast
11:53 AM 55.0 °F 41.0 °F 59% 29.91 in 10.0 mi South 6.9 mph - N/A   Overcast
12:53 PM 55.0 °F 39.9 °F 57% 29.91 in 10.0 mi South 12.7 mph 21.9 mph N/A   Overcast
1:53 PM 55.9 °F 37.9 °F 51% 29.89 in 10.0 mi SE 12.7 mph - N/A   Overcast
2:53 PM 55.9 °F 36.0 °F 47% 29.92 in 10.0 mi SE 19.6 mph 29.9 mph N/A   Overcast
3:53 PM 55.0 °F 37.0 °F 51% 29.88 in 10.0 mi SE 15.0 mph 26.5 mph N/A   Overcast
4:53 PM 54.0 °F 37.9 °F 55% 29.85 in 10.0 mi ESE 15.0 mph 27.6 mph 0.00 in Rain Light Rain
5:53 PM 55.0 °F 37.0 °F 51% 29.79 in 8.0 mi ESE 33.4 mph 39.1 mph 0.00 in   Overcast
6:53 PM 54.0 °F 35.1 °F 49% 29.78 in 5.0 mi SE 28.8 mph 42.6 mph 0.00 in   Haze
7:53 PM 55.0 °F 34.0 °F 45% 29.74 in 6.0 mi ESE 29.9 mph 43.7 mph N/A   Haze
8:53 PM 55.9 °F 34.0 °F 44% 29.70 in 6.0 mi ESE 19.6 mph 42.6 mph N/A   Haze
9:53 PM 55.9 °F 35.1 °F 45% 29.71 in 8.0 mi SE 24.2 mph 43.7 mph 0.00 in Rain Light Rain
10:53 PM 55.0 °F 35.1 °F 47% 29.67 in 6.0 mi ESE 21.9 mph 41.4 mph 0.00 in   Haze
11:09 PM 55.4 °F 35.6 °F 47% 29.66 in 4.0 mi ESE 17.3 mph 41.4 mph N/A   Haze
11:53 PM 54.0 °F 35.1 °F 49% 29.64 in 7.0 mi East 18.4 mph 43.7 mph N/A   Overcast